Starlink 31684

operational
NORAD ID: 59492 Int'l Des: 2024-071 Owner: SPXS Country: US Constellation: starlink
LEOCIRCULAR

关于 Starlink 31684

正在加载描述...

实时位置

正在加载3D地球...

即将过境

高度历史

Altitude vs Time

uPlot chart will show altitude changes over time

两行轨道根数

1 59492U 24071J 26063.30212873 .00002690 00000-0 10723-3 0 9999
2 59492 43.0008 17.7845 0000448 261.7276 98.3525 15.27575953107295
Epoch: Mar 4, 2026 • Age: 20 hours

当前状态

高度 491.8 km
速度 7.62 km/s
星下点 -32.36°S, 123.92°W
发射日期 Apr 13, 2024
运行时间 1.8 years
类型 internet

技术详情

分类 Payload
质量 730.00 kg
干质量 700.00 kg
总质量 730.00 kg
长度 0.30 m
直径 4.10 m
跨度 29.00 m
形状 Box + pan
制造商 SPXS
平台类型 Starlink V2M
阶段状态 In Orbit
所有者/国家 SPXS/US

大型星座

Loading constellations...